Weather in Zarya

Russia / Sverdlovsk Oblast     56°44′34″N   57°57′39″E
temp.,
°C
wind,
m/s
gust,
m/s
humid.,
%
clouds,
%
prec.,
mm/h
press.,
hPa
HPBL,
m
20 april, tue
tue2023:00−1e11500 0.0 103410
02:00−2ssw11510 0.0 103410
05:00−2wsw115248 0.0 103510
08:00+1nw24455 0.0 1035245
11:00+5nw343625 0.0 10351168
14:00+7nw45335 0.0 10331358
17:00+8nw45330 0.0 10321396
20:00+4nnw22510 0.0 103116
21 april, wed
wed2123:00+2nw11610 0.0 103310
02:000wnw11672 0.0 103310
05:000wsw00700 0.0 103310
08:00+3wsw11570 0.0 1034153
11:00+8ene01434 0.0 1032729
14:00+11s113658 0.0 10321166
17:00+11sse343463 0.0 10301134
20:00+8sse225195 0.0 103019
22 april, thu
thu2223:00+6ese2259100 0.0 103118
02:00+4se276734 0.0 1030140
05:00+3se2273100 0.0 103135
08:00+5s31165100 0.0 1031559
11:00+9s5844100 0.0 1031995
14:00+12s683575 0.0 10301668
17:00+12ssw5935100 0.0 10301956
20:00+9sw3850100 0.0 1030427
23 april, fri
fri2323:00+6sw2971100 0.0 1031658
02:00+5s2672100 0.0 1030258
05:00+4s3892100 1.0 1031686
08:00+4sse3797100 2.3 1030607
11:00+5s3695100 2.8 1030776
14:00+6s2483100 0.2 1029907
17:00+5sse1489100 0.3 1029280
20:00+5se1190100 0.0 102925
24 april, sat
sat2423:00+4e1193100 0.0 102827
02:00+4ne1191100 0.0 102626
05:00+4ene2592100 0.0 1024132
08:00+5e2696100 0.3 1022221
11:00+6se3791100 1.3 1021601
14:00+7se3683100 0.1 1019994
17:00+6se3687100 0.4 1019814
20:00+5ese3694100 1.1 1018805